Location: ????????
(37.9452°N, 23.1472°E)
Time: 04:55:19
(UTC+00:00)

Cosmos 2297 Rocket - Pass Details

Date: 18 April 2024
Orbit: 840 x 841 km, 71.0° (Epoch: 23 May)

Event Time Altitude Azimuth Distance (km) Brightness Sun altitude
Rises 20:34:15 0° 327° (NNW) 3,400 6.4 -34.2°
Reaches altitude 10° 20:36:56 10° 317° (NW) 2,461 5.4 -34.5°
Enters shadow 20:40:42 29° 279° (W) 1,496 3.7 -34.9°
